Location: ??
(35.5052°N, 139.7262°E)
Time: 18:51:59
(UTC+00:00)

OAO 1 - Pass Details

Date: 26 October 2021
Orbit: 773 x 784 km, 35.0° (Epoch: 28 November)

Event Time Altitude Azimuth Distance (km) Brightness Sun altitude
Rises 08:41:08 0° 260° (W) 3,243 10.1 -10.5°
Reaches altitude 10° 08:43:36 10° 260° (W) 2,318 8.6 -11.0°
Maximum altitude 08:49:06 82° 173° (S) 787 4.5 -12.1°
Enters shadow 08:53:14 18° 87° (E) 1,825 5.8 -12.9°
